Flag for United Kingdom Weather past 2 weeks in Bury, England, United Kingdom

Now
54 °F

Scattered clouds.


Feels Like: 51 °F
Forecast: 47 / 56 °F
Wind: 9 mph from Southwest

Location: Manchester Airport

Current Time: May 4, 2015 at 11:14:08 AM

Latest Report: May 4, 2015 at 10:50 AM


Visibility: N/A

Pressure: 29.59 "Hg

Humidity: 63%

Dew point: 41 °F

Location of BuryLocation

Historic Weather in Bury — Graph

°F

Bury temperature yesterday

Maximum temperature yesterday: 63 °F (at 2:20 PM)
Minimum temperature yesterday: 45 °F (at 12:20 AM)
Average temperature yesterday: 54 °F

Past Weeks' High & Low Weather Summary

 TemperatureHumidityPressure
High66 °F (Apr 21, 2:50 PM)100% (Apr 20, 2:20 AM)30.60 "Hg (Apr 20, 2:20 AM)
Low28 °F (Apr 27, 5:50 AM)30% (Apr 23, 5:20 PM)29.27 "Hg (May 3, 10:50 AM)
Average48 °F72%29.95 "Hg
* Reported Apr 19 9:20 AM — May 4 9:50 AM, Bury, Weather by CustomWeather, © 2015

Note: Actual official high and low records may vary slightly from our data, if they occured in-between our weather recording intervals... More about our weather records

Advertising

Bury weather history for previous 24 hours

 ConditionsComfort  
Time TempWeatherWind HumidityBarometerVisibility
9:50 AM
Mon, May 4
52 °FScattered clouds.12 mph67%29.59 "HgN/A
9:20 AM54 °FPassing clouds.14 mph67%29.59 "HgN/A
8:50 AM54 °FPassing clouds.13 mph67%29.59 "HgN/A
8:20 AM52 °FPassing clouds.16 mph72%29.56 "HgN/A
7:50 AM50 °FPassing clouds.14 mph76%29.56 "HgN/A
7:20 AM50 °FPassing clouds.14 mph76%29.53 "HgN/A
6:50 AM48 °FPassing clouds.13 mph82%29.53 "HgN/A
6:20 AM46 °FPassing clouds.9 mph82%29.53 "HgN/A
5:50 AM46 °FPassing clouds.8 mph82%29.50 "HgN/A
5:20 AM46 °FPassing clouds.15 mph82%29.50 "HgN/A
4:50 AM48 °FPassing clouds.9 mph100%29.50 "HgN/A
4:20 AM50 °FSprinkles. Passing clouds.10 mph94%29.47 "HgN/A
3:50 AM52 °FRain showers. Partly cloudy.16 mph94%29.47 "Hg4 mi
3:20 AM52 °FSprinkles. Passing clouds.14 mph94%29.45 "HgN/A
2:50 AM52 °FPassing clouds.14 mph94%29.42 "HgN/A
2:20 AM52 °FPassing clouds.14 mph88%29.42 "HgN/A
1:50 AM54 °FPassing clouds.13 mph82%29.42 "HgN/A
1:20 AM54 °FPassing clouds.15 mph82%29.42 "HgN/A
12:50 AM54 °FPassing clouds.14 mph82%29.42 "HgN/A
12:20 AM54 °FPassing clouds.14 mph82%29.39 "HgN/A
11:50 PM
Sun, May 3
54 °FPartly cloudy.10 mph88%29.39 "HgN/A
11:20 PM54 °FPartly cloudy.9 mph82%29.39 "HgN/A
10:50 PM54 °FPassing clouds.13 mph82%29.39 "HgN/A
10:20 PM54 °FPassing clouds.13 mph82%29.39 "HgN/A
9:50 PM54 °FPassing clouds.9 mph82%29.39 "HgN/A
9:20 PM55 °FScattered clouds.12 mph77%29.39 "HgN/A
8:50 PM55 °FPartly sunny.9 mph77%29.36 "HgN/A
8:20 PM55 °FPassing clouds.13 mph77%29.36 "HgN/A
7:50 PM57 °FScattered clouds.13 mph72%29.36 "HgN/A
7:20 PM57 °FScattered clouds.14 mph72%29.36 "HgN/A
6:50 PM59 °FBroken clouds.12 mph68%29.36 "HgN/A
6:20 PM59 °FBroken clouds.14 mph63%29.36 "HgN/A
5:50 PM59 °FPassing clouds.16 mph63%29.33 "HgN/A
5:20 PM61 °FBroken clouds.22 mph63%29.33 "HgN/A
4:50 PM61 °FBroken clouds.17 mph72%29.33 "HgN/A
4:20 PM63 °FBroken clouds.16 mph68%29.33 "HgN/A
3:50 PM61 °FBroken clouds.13 mph77%29.30 "HgN/A
3:20 PM61 °FScattered clouds.20 mph72%29.30 "HgN/A
2:50 PM63 °FScattered clouds.18 mph68%29.30 "HgN/A
2:20 PM63 °FBroken clouds.15 mph73%29.30 "HgN/A
1:50 PM61 °FBroken clouds.15 mph77%29.30 "HgN/A
1:20 PM61 °FPartly sunny.15 mph77%29.30 "HgN/A
12:50 PM61 °FPartly sunny.14 mph77%29.30 "HgN/A
12:20 PM59 °FPartly sunny.14 mph82%29.30 "HgN/A
11:50 AM57 °FPartly sunny.10 mph88%29.30 "HgN/A
11:20 AM57 °FLight rain. Partly sunny.10 mph82%29.30 "HgN/A
Weather by CustomWeather, © 2015

See weather overviewHow to use our weather pages